[[{"header":{"parameterUnit":"m.s-1","parameterCategory":1,"la1":30.2991,"la2":30.254,"lo1":-89.0895,"lo2":-89.0444,"dy":0.0017,"dx":0.0017,"nx":28,"ny":28,"refTime":"2023-11-04T03:00:00:Z","depth":0,"parameterNumber":2,"parameterNumberName":"U-component_of_WINDS"},"data":[0,0,0,0,0,0,0,0,0,0,0,0,0,0,0,0,0,0,0,0,0,0,0,0,0,0,0,0,0,0,0,0,0,0,0,0,0,0,0,0,0,0,0,0,0,0,0,0,0,0,0,0,0,0,0,0,0,0,-2.779,-2.7791,0,-2.7886,-2.7888,-2.7889,-2.785,-2.7848,-2.7845,-2.7843,-2.7943,-2.7948,-2.7953,0,0,0,0,0,0,0,0,0,0,0,0,0,-2.7573,-2.7577,-2.779,-2.7791,-2.7792,-2.7886,-2.7888,-2.7889,-2.785,-2.7848,-2.7845,-2.7842,-2.7942,-2.7947,-2.7953,0,0,0,0,0,0,0,0,0,0,0,0,0,-2.7668,-2.7578,-2.7789,-2.7784,-2.7785,-2.7886,-2.7888,-2.7889,-2.7851,-2.7848,-2.7844,-2.7841,-2.794,-2.7947,-2.7954,-2.8066,0,0,-2.7976,-2.7979,0,0,0,0,0,0,0,0,-2.7663,-2.7676,-2.7784,-2.7785,-2.7785,-2.7853,-2.7848,-2.7949,-2.7852,-2.7826,-2.7843,-2.7839,-2.7916,-2.7925,-2.795,-2.8071,-2.8075,-2.7976,-2.7981,-2.7984,-2.7986,0,0,0,0,0,0,0,-2.7656,-2.7672,-2.7828,-2.7785,-2.7786,-2.7777,-2.7787,-2.7867,-2.7889,-2.7828,-2.7825,-2.7837,-2.7916,-2.7944,-2.7953,-2.8077,-2.7976,-2.7983,-2.7987,-2.799,-2.8297,-2.83,0,0,0,0,0,0,-2.7649,-2.7666,-2.7825,-2.7831,-2.7714,-2.7784,-2.7795,-2.7835,-2.7888,-2.7893,-2.784,-2.7835,-2.7933,-2.7944,-2.7956,-2.8093,-2.7984,-2.799,-2.7995,-2.8293,-2.8297,-2.8302,0,0,0,0,0,0,-2.7645,-2.7664,-2.7821,-2.7748,-2.7767,-2.7791,-2.7836,-2.7838,-2.7866,-2.7897,-2.7901,-2.7865,-2.7931,-2.7946,-2.804,-2.8096,-2.7994,-2.8,-2.8288,-2.8294,-2.83,-2.8367,0,0,0,0,0,0,-2.7639,-2.7662,-2.7705,-2.7749,-2.7771,-2.7903,-2.784,-2.7843,-2.7879,-2.7873,-2.7921,-2.7926,-2.7929,-2.8029,-2.8047,-2.8104,-2.8006,-2.8283,-2.8291,-2.8298,-2.836,-2.8375,-2.8387,0,0,0,0,0,-2.7631,-2.772,-2.7707,-2.7727,-2.7825,-2.7906,-2.7919,-2.7921,-2.7883,-2.7927,-2.7947,-2.7924,-2.8086,-2.8039,-2.8059,-2.8119,-2.828,-2.8289,-2.8297,-2.8354,-2.8372,-2.8387,0,0,0,0,0,0,-2.7682,-2.7726,-2.7712,-2.7818,-2.7859,-2.7899,-2.7954,-2.7939,-2.7992,-2.7984,-2.7985,-2.7996,-2.8093,-2.8115,-2.8061,-2.8231,-2.8178,-2.8191,-2.8214,-2.8231,-2.8244,-2.8238,-2.8012,0,0,0,0,0,-2.7705,-2.7767,-2.7802,-2.7892,-2.7913,-2.793,-2.7965,-2.7964,-2.8006,-2.8023,-2.805,-2.8092,-2.8153,-2.8193,-2.825,-2.8362,-2.8373,-2.8413,-2.8427,-2.8438,-2.845,-2.8513,-2.8532,-2.833,-2.833,-2.833,0,0,-2.7754,-2.7786,-2.7825,-2.7903,-2.7934,-2.7999,-2.7945,-2.8015,-2.8064,-2.8034,-2.8125,-2.8146,-2.8193,-2.8297,-2.8344,-2.8318,-2.8508,-2.8449,-2.8457,-2.8463,-2.8524,-2.8543,-2.856,-2.8336,-2.8335,-2.8334,0,0,-2.7877,-2.7907,-2.7986,-2.8019,-2.8067,-2.8078,-2.8097,-2.814,-2.8153,-2.8244,-2.8224,-2.8281,-2.8385,-2.842,-2.8452,-2.8589,-2.8571,-2.8608,-2.8679,-2.8741,-2.8757,-2.8771,-2.8822,-2.884,-2.8619,-2.8619,-2.8619,0,-2.7933,-2.8029,-2.8028,-2.8101,-2.8137,-2.8112,-2.8194,-2.8225,-2.829,-2.8315,-2.8285,-2.8416,-2.8446,-2.8559,-2.8593,-2.8618,-2.8641,-2.8603,-2.8754,-2.8768,-2.8782,-2.8831,-2.885,-2.8624,-2.8623,-2.8623,-2.8622,0,-2.8096,-2.8163,-2.8221,-2.8285,-2.8327,-2.8403,-2.8415,-2.8458,-2.8452,-2.8467,-2.8561,-2.8595,-2.8661,-2.8687,-2.8681,-2.88,-2.8783,-2.8753,-2.8699,-2.8805,-2.8852,-2.887,-2.863,-2.8628,-2.8627,-2.8626,0,0,-2.8255,-2.8317,-2.8339,-2.8368,-2.842,-2.8472,-2.8548,-2.8612,-2.8649,-2.8694,-2.8759,-2.8848,-2.8822,-2.8857,-2.8856,-2.891,-2.9019,-2.8874,-2.8875,-2.8902,-2.9155,-2.9178,-2.92,-2.9007,-2.901,-2.9013,-2.9151,0,-2.8384,-2.8517,-2.8519,-2.8642,-2.8705,-2.8683,-2.8749,-2.8788,-2.8804,-2.886,-2.8877,-2.8941,-2.89,-2.8922,-2.8974,-2.8995,-2.9071,-2.8985,-2.9069,-2.9072,-2.906,-2.9224,-2.9249,-2.9377,-2.9169,-2.9172,-2.9174,0,-2.8553,-2.8604,-2.8734,-2.8778,-2.8804,-2.8864,-2.8923,-2.8976,-2.9021,-2.9029,-2.9069,-2.906,-2.9138,-2.908,-2.9189,-2.9131,-2.9165,-2.9181,-2.9186,-2.9196,-2.9131,-2.924,-2.9418,-2.9439,-2.9202,-2.92,-2.9198,0,-2.8659,-2.876,-2.8851,-2.8877,-2.893,-2.8972,-2.8996,-2.9037,-2.9076,-2.9127,-2.9153,-2.9213,-2.9246,-2.9293,-2.9301,-2.9258,-2.9411,-2.9354,-2.9422,-2.9422,-2.9457,-2.9455,-2.9645,-2.9475,-2.9475,-2.9474,-2.9474,0,-2.8805,-2.8885,-2.89,-2.8956,-2.9046,-2.9048,-2.9137,-2.9157,-2.9194,-2.9255,-2.9238,-2.9295,-2.9301,-2.936,-2.9366,-2.9457,-2.9472,-2.9481,-2.9483,-2.9485,-2.9484,-2.9509,-2.9501,-2.9479,-2.9478,-2.9477,-2.9476,0,-2.894,-2.8952,-2.9051,-2.9093,-2.9105,-2.917,-2.9206,-2.9261,-2.9274,-2.9351,-2.9369,-2.9391,-2.946,-2.9472,-2.9553,-2.9557,-2.9667,-2.9657,-2.9652,-2.9652,-2.972,-2.9715,-2.9935,-2.9965,-2.9773,-2.9775,-2.9776,0,-2.9033,-2.9095,-2.9144,-2.9183,-2.9209,-2.9273,-2.9312,-2.9316,-2.9358,-2.9414,-2.9462,-2.9529,-2.9583,-2.9695,-2.9718,-2.9781,-2.9774,-2.9847,-2.9784,-2.9784,-2.9779,-2.9776,-2.9783,-2.9861,-2.9863,-2.9864,-2.9866,0,-2.9198,-2.9202,-2.9259,-2.932,-2.9367,-2.9415,-2.946,-2.9493,-2.9503,-2.9551,-2.9621,-2.9664,-2.9747,-2.9815,-2.9877,-2.9902,-2.9887,-2.9885,-2.9905,-2.9909,-2.9904,-2.991,-2.9688,-2.9881,-2.9879,-2.9878,-2.9877,-2.9877,-2.9317,-2.9372,-2.9415,-2.948,-2.9514,-2.9557,-2.9611,-2.9631,-2.969,-2.9758,-2.9756,-2.9835,-2.9878,-2.996,-2.999,-3.0052,-3.0028,-3.0056,-3.0063,-3.0071,-3.0079,-2.9892,-3.0062,-3.0062,-3.0062,-3.0061,-3.0061,0,-2.9484,-2.9511,-2.957,-2.9634,-2.9686,-2.9666,-2.9715,-2.976,-2.9828,-2.987,-2.9924,-3.0006,-3.0072,-3.0101,-3.0166,-3.021,-3.0205,-3.0227,-3.0225,-3.0232,-3.0094,-3.0072,-3.023,-3.023,-3.023,-3.023,-3.023,-3.023,-2.9577,-2.9669,-2.9678,-2.9787,-2.9813,-2.9889,-2.992,-2.9959,-2.9993,-3.0085,-3.014,-3.0158,-3.0196,-3.0263,-3.0323,-3.033,-3.0356,-3.0382,-3.0386,-3.0258,-3.0241,-3.0225,-3.0204,-3.0387,-3.0388,-3.0519,-3.052,-3.0521]},{"header":{"parameterUnit":"m.s-1","parameterCategory":1,"la1":30.2991,"la2":30.254,"lo1":-89.0895,"lo2":-89.0444,"dy":0.0017,"dx":0.0017,"nx":28,"ny":28,"refTime":"2023-11-04T03:00:00:Z","depth":0,"parameterNumber":3,"parameterNumberName":"V-component_of_WINDS"},"data":[0,0,0,0,0,0,0,0,0,0,0,0,0,0,0,0,0,0,0,0,0,0,0,0,0,0,0,0,0,0,0,0,0,0,0,0,0,0,0,0,0,0,0,0,0,0,0,0,0,0,0,0,0,0,0,0,0,0,-1.39,-1.39,0,-1.3873,-1.3872,-1.3872,-1.3823,-1.3822,-1.3821,-1.382,-1.3792,-1.3792,-1.3792,0,0,0,0,0,0,0,0,0,0,0,0,0,-1.391,-1.391,-1.39,-1.39,-1.39,-1.3873,-1.3872,-1.3872,-1.3823,-1.3822,-1.382,-1.3819,-1.3792,-1.3792,-1.3792,0,0,0,0,0,0,0,0,0,0,0,0,0,-1.3897,-1.391,-1.3901,-1.3872,-1.3869,-1.3873,-1.3872,-1.3872,-1.3823,-1.3822,-1.382,-1.3819,-1.3792,-1.3792,-1.3792,-1.3822,0,0,-1.3793,-1.3793,0,0,0,0,0,0,0,0,-1.3898,-1.3896,-1.3876,-1.3874,-1.3871,-1.385,-1.3866,-1.3855,-1.3823,-1.3841,-1.382,-1.3818,-1.3812,-1.3811,-1.3809,-1.3821,-1.382,-1.3793,-1.3793,-1.3793,-1.3793,0,0,0,0,0,0,0,-1.3899,-1.3897,-1.3889,-1.3876,-1.3873,-1.386,-1.3857,-1.3863,-1.3835,-1.3839,-1.3835,-1.3833,-1.3811,-1.3809,-1.3808,-1.3819,-1.3793,-1.3793,-1.3793,-1.3793,-1.3853,-1.3854,0,0,0,0,0,0,-1.3904,-1.3898,-1.389,-1.3889,-1.3881,-1.3861,-1.3857,-1.3858,-1.3835,-1.383,-1.3834,-1.383,-1.3809,-1.3808,-1.3807,-1.3839,-1.3793,-1.3794,-1.3794,-1.3851,-1.3853,-1.3854,0,0,0,0,0,0,-1.3904,-1.3903,-1.3891,-1.3893,-1.389,-1.3863,-1.3864,-1.3858,-1.3856,-1.3831,-1.3825,-1.3837,-1.3808,-1.3806,-1.3818,-1.3837,-1.3794,-1.3794,-1.3849,-1.3852,-1.3854,-1.3904,0,0,0,0,0,0,-1.3905,-1.3904,-1.3915,-1.3893,-1.389,-1.3904,-1.3865,-1.3859,-1.3857,-1.3852,-1.3832,-1.3828,-1.3807,-1.3818,-1.3818,-1.3837,-1.3794,-1.3848,-1.385,-1.3853,-1.3901,-1.3908,-1.3914,0,0,0,0,0,-1.3905,-1.3931,-1.3916,-1.3915,-1.3904,-1.3905,-1.3903,-1.3878,-1.3858,-1.3869,-1.3852,-1.3829,-1.3835,-1.382,-1.382,-1.3838,-1.3846,-1.385,-1.3853,-1.3898,-1.3906,-1.3914,0,0,0,0,0,0,-1.3956,-1.3928,-1.3911,-1.393,-1.392,-1.3897,-1.391,-1.3888,-1.3884,-1.388,-1.3849,-1.3845,-1.3861,-1.3851,-1.3834,-1.3865,-1.3837,-1.384,-1.3871,-1.3879,-1.3886,-1.3887,-1.3794,0,0,0,0,0,-1.397,-1.3973,-1.3948,-1.3968,-1.3963,-1.3938,-1.3937,-1.3918,-1.3907,-1.3903,-1.3887,-1.3877,-1.3877,-1.3878,-1.3876,-1.3899,-1.3893,-1.3912,-1.3918,-1.3924,-1.3927,-1.3937,-1.3944,-1.3865,-1.3865,-1.3865,0,0,-1.3998,-1.3983,-1.3987,-1.3977,-1.3968,-1.3972,-1.3934,-1.3941,-1.3943,-1.3904,-1.3914,-1.3902,-1.3889,-1.3906,-1.3913,-1.3898,-1.3947,-1.3928,-1.3932,-1.3932,-1.3941,-1.3949,-1.3955,-1.3867,-1.3867,-1.3866,0,0,-1.4051,-1.404,-1.4054,-1.4045,-1.403,-1.4013,-1.4016,-1.3996,-1.3986,-1.3995,-1.3966,-1.3968,-1.3969,-1.396,-1.3956,-1.4004,-1.3982,-1.4005,-1.4039,-1.4049,-1.4055,-1.4061,-1.4077,-1.4083,-1.4008,-1.4008,-1.4008,0,-1.4087,-1.4092,-1.4065,-1.4072,-1.4069,-1.4033,-1.4047,-1.4039,-1.4025,-1.4023,-1.4007,-1.4006,-1.3994,-1.4008,-1.402,-1.4018,-1.4021,-1.4007,-1.4057,-1.4062,-1.4066,-1.4082,-1.4088,-1.4011,-1.4011,-1.401,-1.401,0,-1.4138,-1.4141,-1.4155,-1.4141,-1.4139,-1.415,-1.4124,-1.4125,-1.4106,-1.409,-1.41,-1.4085,-1.4079,-1.4081,-1.4063,-1.4092,-1.4083,-1.4062,-1.4033,-1.4077,-1.4091,-1.4097,-1.4015,-1.4014,-1.4013,-1.4012,0,0,-1.4222,-1.4193,-1.4198,-1.4191,-1.4172,-1.4174,-1.4183,-1.4177,-1.4178,-1.4169,-1.4175,-1.4176,-1.4156,-1.4151,-1.4132,-1.4141,-1.4179,-1.4119,-1.4118,-1.413,-1.4209,-1.4224,-1.4231,-1.4164,-1.4165,-1.4166,-1.4209,0,-1.4271,-1.4284,-1.4259,-1.4278,-1.4281,-1.4246,-1.4254,-1.4243,-1.4228,-1.4227,-1.4211,-1.4211,-1.4186,-1.4182,-1.419,-1.4173,-1.4194,-1.4169,-1.4169,-1.4169,-1.4172,-1.4238,-1.4255,-1.4297,-1.4215,-1.4216,-1.4216,0,-1.4329,-1.4322,-1.4342,-1.432,-1.432,-1.4327,-1.4319,-1.4319,-1.4306,-1.4294,-1.4288,-1.4265,-1.4272,-1.4244,-1.4253,-1.4236,-1.4234,-1.4226,-1.4227,-1.4225,-1.4195,-1.4238,-1.431,-1.4316,-1.4225,-1.4224,-1.4223,0,-1.4388,-1.4384,-1.4394,-1.4389,-1.4365,-1.437,-1.4361,-1.4345,-1.4343,-1.4335,-1.4333,-1.4327,-1.4324,-1.4319,-1.4295,-1.4277,-1.4306,-1.4276,-1.4296,-1.4296,-1.4303,-1.4303,-1.4375,-1.4303,-1.4303,-1.4303,-1.4303,0,-1.4444,-1.4457,-1.442,-1.4427,-1.444,-1.4411,-1.4424,-1.4411,-1.4398,-1.4401,-1.4371,-1.4374,-1.4342,-1.4342,-1.4323,-1.4332,-1.4331,-1.4321,-1.4316,-1.4324,-1.4325,-1.4322,-1.4318,-1.4305,-1.4304,-1.4304,-1.4304,0,-1.4511,-1.4488,-1.4497,-1.4472,-1.4466,-1.4477,-1.4456,-1.4461,-1.4444,-1.4448,-1.4447,-1.442,-1.4418,-1.4393,-1.4387,-1.4374,-1.439,-1.4379,-1.4394,-1.4391,-1.4411,-1.4409,-1.4483,-1.4491,-1.4416,-1.4416,-1.4417,0,-1.4549,-1.4557,-1.4534,-1.4533,-1.4525,-1.4525,-1.4521,-1.4493,-1.4491,-1.4475,-1.4482,-1.4477,-1.4472,-1.447,-1.445,-1.4444,-1.4433,-1.4459,-1.4432,-1.4439,-1.4432,-1.4432,-1.4432,-1.4465,-1.4466,-1.4467,-1.4467,0,-1.4616,-1.4604,-1.46,-1.4593,-1.459,-1.4582,-1.4573,-1.4575,-1.4543,-1.4542,-1.4539,-1.4535,-1.4527,-1.4523,-1.4513,-1.4503,-1.448,-1.4476,-1.448,-1.4488,-1.4495,-1.449,-1.4409,-1.4475,-1.4474,-1.4473,-1.4473,-1.4473,-1.4669,-1.4675,-1.4659,-1.4656,-1.4646,-1.4637,-1.464,-1.4623,-1.462,-1.4611,-1.4595,-1.4594,-1.4579,-1.4564,-1.4555,-1.4554,-1.454,-1.4546,-1.4548,-1.4549,-1.4553,-1.4496,-1.4552,-1.4552,-1.4552,-1.4551,-1.4551,0,-1.4735,-1.4722,-1.472,-1.4707,-1.4705,-1.4683,-1.4671,-1.467,-1.467,-1.4658,-1.4653,-1.465,-1.4645,-1.4624,-1.4617,-1.462,-1.4609,-1.4619,-1.4618,-1.4616,-1.4566,-1.4563,-1.4628,-1.4628,-1.4628,-1.4628,-1.4628,-1.4628,-1.4768,-1.4777,-1.4762,-1.4765,-1.4752,-1.4751,-1.4746,-1.4738,-1.4728,-1.4725,-1.4721,-1.4707,-1.4691,-1.4683,-1.4677,-1.4671,-1.4669,-1.4683,-1.4673,-1.4627,-1.4619,-1.4612,-1.4609,-1.4683,-1.4683,-1.4722,-1.4723,-1.4723]}]]